TimeCST,TemperatureF,Dew PointF,Humidity,Sea Level PressureIn,VisibilityMPH,Wind Direction,Wind SpeedMPH,Gust SpeedMPH,PrecipitationIn,Events,Conditions,WindDirDegrees,DateUTC
12:13 AM,37.4,33.8,87,29.34,10.0,South,10.4,-,N/A,,Unknown,170,2013-11-16 06:13:00
12:33 AM,37.4,33.8,87,29.33,10.0,South,10.4,-,N/A,,Unknown,170,2013-11-16 06:33:00
12:53 AM,35.6,33.8,93,29.33,10.0,South,6.9,-,N/A,,Unknown,170,2013-11-16 06:53:00
1:13 AM,33.8,32.0,93,29.32,10.0,South,8.1,-,N/A,,Unknown,170,2013-11-16 07:13:00
1:33 AM,35.6,32.0,87,29.31,10.0,South,6.9,-,N/A,,Unknown,170,2013-11-16 07:33:00
1:53 AM,33.8,32.0,93,29.31,10.0,South,8.1,-,N/A,,Unknown,170,2013-11-16 07:53:00
2:13 AM,33.8,30.2,87,29.31,10.0,South,8.1,-,N/A,,Unknown,170,2013-11-16 08:13:00
2:33 AM,33.8,30.2,87,29.31,10.0,South,5.8,-,N/A,,Unknown,170,2013-11-16 08:33:00
2:53 AM,32.0,30.2,93,29.31,10.0,South,9.2,-,N/A,,Unknown,170,2013-11-16 08:53:00
3:13 AM,33.8,30.2,87,29.31,10.0,South,9.2,-,N/A,,Unknown,170,2013-11-16 09:13:00
3:33 AM,33.8,30.2,87,29.31,10.0,South,8.1,-,N/A,,Unknown,170,2013-11-16 09:33:00
3:53 AM,32.0,30.2,93,29.31,7.0,South,9.2,-,N/A,,Unknown,170,2013-11-16 09:53:00
4:14 AM,30.2,28.4,93,29.32,7.0,SSW,4.6,-,N/A,,Unknown,200,2013-11-16 10:14:00
4:33 AM,30.2,28.4,93,29.32,7.0,South,5.8,-,N/A,,Unknown,170,2013-11-16 10:33:00
4:53 AM,30.2,28.4,93,29.32,7.0,SSE,8.1,-,N/A,,Unknown,160,2013-11-16 10:53:00
5:13 AM,30.2,28.4,93,29.32,7.0,SSE,9.2,-,N/A,,Unknown,160,2013-11-16 11:13:00
5:34 AM,28.4,26.6,93,29.31,7.0,SSE,8.1,-,N/A,,Unknown,160,2013-11-16 11:34:00
5:53 AM,28.4,26.6,93,29.31,5.0,SSE,8.1,-,N/A,,Mist,160,2013-11-16 11:53:00
6:13 AM,26.6,24.8,93,29.31,5.0,SSE,6.9,-,N/A,,Mist,160,2013-11-16 12:13:00
6:33 AM,26.6,24.8,93,29.31,7.0,SE,3.5,-,N/A,,Unknown,130,2013-11-16 12:33:00
6:53 AM,26.6,26.6,100,29.32,5.0,SSE,8.1,-,N/A,,Mist,150,2013-11-16 12:53:00
7:13 AM,26.6,24.8,93,29.32,7.0,SE,9.2,-,N/A,,Unknown,140,2013-11-16 13:13:00
7:33 AM,28.4,26.6,93,29.33,5.0,SSE,9.2,-,N/A,,Mist,150,2013-11-16 13:33:00
7:53 AM,28.4,26.6,93,29.33,5.0,SSE,10.4,-,N/A,,Mist,160,2013-11-16 13:53:00
8:13 AM,28.4,26.6,93,29.33,5.0,SSE,8.1,-,N/A,,Mist,160,2013-11-16 14:13:00
8:33 AM,28.4,26.6,93,29.34,5.0,South,8.1,-,N/A,,Mist,170,2013-11-16 14:33:00
8:53 AM,30.2,28.4,93,29.34,5.0,SSE,4.6,-,N/A,,Mist,160,2013-11-16 14:53:00
9:13 AM,30.2,30.2,100,29.34,5.0,SSW,3.5,-,N/A,,Mist,200,2013-11-16 15:13:00
9:33 AM,32.0,30.2,93,29.33,7.0,Calm,Calm,-,N/A,,Unknown,0,2013-11-16 15:33:00
9:53 AM,33.8,30.2,87,29.34,7.0,SSE,10.4,-,N/A,,Unknown,160,2013-11-16 15:53:00
10:13 AM,33.8,32.0,93,29.35,10.0,South,8.1,-,N/A,,Unknown,170,2013-11-16 16:13:00
10:33 AM,35.6,32.0,87,29.34,10.0,Calm,Calm,-,N/A,,Unknown,0,2013-11-16 16:33:00
10:53 AM,35.6,32.0,87,29.34,10.0,Calm,Calm,-,N/A,,Unknown,0,2013-11-16 16:53:00
11:13 AM,35.6,30.2,81,29.34,10.0,Calm,Calm,-,N/A,,Unknown,0,2013-11-16 17:13:00
11:33 AM,35.6,32.0,87,29.34,10.0,Calm,Calm,-,N/A,,Unknown,0,2013-11-16 17:33:00
11:53 AM,35.6,32.0,87,29.33,10.0,Calm,Calm,-,N/A,,Unknown,0,2013-11-16 17:53:00
12:13 PM,37.4,33.8,87,29.33,10.0,Calm,Calm,-,N/A,,Unknown,0,2013-11-16 18:13:00
12:33 PM,37.4,33.8,87,29.33,10.0,Calm,Calm,-,N/A,,Unknown,0,2013-11-16 18:33:00
12:53 PM,37.4,33.8,87,29.34,10.0,Calm,Calm,-,N/A,,Unknown,0,2013-11-16 18:53:00
1:13 PM,39.2,33.8,81,29.33,10.0,Calm,Calm,-,N/A,,Unknown,0,2013-11-16 19:13:00
1:33 PM,39.2,33.8,81,29.32,10.0,Calm,Calm,-,N/A,,Unknown,0,2013-11-16 19:33:00
1:53 PM,39.2,33.8,81,29.32,10.0,Calm,Calm,-,N/A,,Unknown,0,2013-11-16 19:53:00
2:13 PM,41.0,33.8,76,29.32,10.0,Calm,Calm,-,N/A,,Unknown,0,2013-11-16 20:13:00
2:33 PM,41.0,33.8,76,29.32,10.0,Calm,Calm,-,N/A,,Unknown,0,2013-11-16 20:33:00
2:53 PM,41.0,32.0,70,29.31,10.0,Calm,Calm,-,N/A,,Unknown,0,2013-11-16 20:53:00
3:13 PM,41.0,32.0,70,29.31,10.0,Calm,Calm,-,N/A,,Unknown,0,2013-11-16 21:13:00
3:33 PM,41.0,33.8,76,29.32,10.0,Calm,Calm,-,N/A,,Unknown,0,2013-11-16 21:33:00
3:53 PM,39.2,33.8,81,29.33,10.0,Calm,Calm,-,N/A,,Unknown,0,2013-11-16 21:53:00
4:13 PM,39.2,33.8,81,29.33,10.0,Calm,Calm,-,N/A,,Unknown,0,2013-11-16 22:13:00
4:33 PM,39.2,33.8,81,29.33,10.0,Calm,Calm,-,N/A,,Unknown,0,2013-11-16 22:33:00
4:53 PM,39.2,33.8,81,29.33,10.0,Calm,Calm,-,N/A,,Unknown,0,2013-11-16 22:53:00
5:13 PM,37.4,33.8,87,29.34,10.0,Calm,Calm,-,N/A,,Light Drizzle,0,2013-11-16 23:13:00
5:33 PM,39.2,33.8,81,29.34,10.0,Calm,Calm,-,N/A,Rain,Light Rain,0,2013-11-16 23:33:00
5:53 PM,37.4,33.8,87,29.34,10.0,East,3.5,-,N/A,Rain,Light Rain,90,2013-11-16 23:53:00
6:14 PM,37.4,35.6,93,29.34,10.0,North,4.6,-,N/A,Rain,Light Rain,350,2013-11-17 00:14:00
6:33 PM,37.4,35.6,93,29.33,7.0,North,5.8,-,N/A,Rain,Light Rain,350,2013-11-17 00:33:00
6:53 PM,37.4,33.8,87,29.34,10.0,NNW,4.6,-,0.01,Rain,Rain,330,2013-11-17 00:53:00
7:14 PM,37.4,33.8,87,29.34,10.0,NW,4.6,-,N/A,,Light Drizzle,320,2013-11-17 01:14:00
7:33 PM,37.4,33.8,87,29.34,7.0,NW,6.9,-,0.02,Rain,Light Rain,320,2013-11-17 01:33:00
7:53 PM,37.4,35.6,93,29.33,5.0,NNW,4.6,-,0.03,Rain,Light Rain,330,2013-11-17 01:53:00
8:14 PM,35.6,33.8,93,29.33,5.0,NNW,6.9,-,0.02,Rain,Light Rain,340,2013-11-17 02:14:00
8:33 PM,35.6,33.8,93,29.34,7.0,NW,5.8,-,0.02,Rain,Light Rain,310,2013-11-17 02:33:00
8:53 PM,35.6,33.8,93,29.35,5.0,Calm,Calm,-,0.02,Rain,Rain,0,2013-11-17 02:53:00
9:14 PM,35.6,33.8,93,29.35,5.0,Calm,Calm,-,0.01,Rain,Light Rain,0,2013-11-17 03:14:00
9:33 PM,35.6,33.8,93,29.35,5.0,North,3.5,-,0.01,Rain,Rain,360,2013-11-17 03:33:00
9:53 PM,35.6,33.8,93,29.35,5.0,North,4.6,-,0.02,Rain,Rain,10,2013-11-17 03:53:00
10:13 PM,35.6,35.6,100,29.35,5.0,North,3.5,-,N/A,Rain,Light Rain,360,2013-11-17 04:13:00
10:33 PM,35.6,35.6,100,29.35,5.0,North,3.5,-,0.01,Rain,Light Rain,350,2013-11-17 04:33:00
10:53 PM,35.6,35.6,100,29.35,4.0,NNW,4.6,-,0.02,Rain,Light Rain,340,2013-11-17 04:53:00
11:13 PM,35.6,35.6,100,29.36,4.0,NNW,3.5,-,0.01,Rain,Light Rain,340,2013-11-17 05:13:00
11:33 PM,35.6,35.6,100,29.36,3.0,NNW,3.5,-,0.02,Rain,Light Rain,340,2013-11-17 05:33:00
11:53 PM,35.6,35.6,100,29.36,3.0,NNW,4.6,-,0.03,Rain,Light Rain,340,2013-11-17 05:53:00